Latest Weather Observations for Maroochydore

IDQ60901

Issued at 3:25 pm EST Sunday 26 October 2014 (issued every 10 minutes, with the page automatically refreshed every 10 minutes)

About weather observations | Map of Brisbane area stations | Latest observations for Brisbane area | Other Formats
Station Details ID: 040861 Name: SUNSHINE COAST AIRPORT Lat: -26.60 Lon: 153.09 Height: 3.3 m
Data from the previous 72 hours. | See also: Recent months at Maroochydore
Date/Time
EST
Tmp

°C
App
Tmp
°C
Dew
Point
°C
Rel
Hum
%
Delta-T

°C
Wind Press
QNH
hPa
Press
MSL
hPa
Rain
since
9 am
mm
Dir
 
Spd
km/h
Gust
km/h
Spd
kts
Gust
kts
26/03:00pm 25.6 22.7 19.3 68 4.0 N 33 46 18 25 1012.0 1012.0 0.0
26/02:30pm 25.5 21.3 18.9 67 4.2 N 39 48 21 26 1012.3 - 0.0
26/02:00pm 26.0 22.7 19.2 66 4.4 N 35 46 19 25 1012.7 - 0.0
26/01:30pm 26.3 23.5 19.4 66 4.4 NNE 33 44 18 24 1013.4 - 0.0
26/01:00pm 26.1 22.8 19.2 65 4.4 NNE 35 46 19 25 1013.8 - 0.0
26/12:30pm 26.1 22.8 19.2 65 4.4 NNE 35 44 19 24 1014.2 - 0.0
26/12:00pm 26.5 23.3 20.3 68 4.1 NNE 37 46 20 25 1014.6 1014.6 0.0
26/11:30am 26.1 23.0 19.7 68 4.1 NNE 35 43 19 23 1015.0 - 0.0
26/11:00am 26.3 23.6 19.7 67 4.3 NNE 33 44 18 24 1015.6 - 0.0
26/10:30am 26.6 24.1 19.7 66 4.5 NNE 32 41 17 22 1015.9 - 0.0
26/10:00am 26.2 23.6 18.6 63 4.8 NNE 30 37 16 20 1016.2 - 0.0
26/09:30am 27.7 27.1 17.5 53 6.4 NNW 17 26 9 14 1016.8 - 0.0
26/09:00am 26.9 26.1 17.9 57 5.7 NNW 19 26 10 14 1017.0 1017.0 0.0
26/08:30am 25.8 25.8 18.0 62 4.9 NNW 15 22 8 12 1017.3 - 0.0
26/08:00am 24.2 23.4 17.2 65 4.3 NNW 17 26 9 14 1017.4 - 0.0
26/07:30am 23.5 22.9 17.5 69 3.7 NNW 17 28 9 15 1017.4 - 0.0
26/07:00am 22.1 21.1 17.5 75 2.8 NNW 19 28 10 15 1017.2 - 0.0
26/06:30am 20.7 19.4 16.7 78 2.4 NNW 19 28 10 15 1017.0 - 0.0
26/06:00am 19.6 18.5 16.4 82 1.9 NNW 17 24 9 13 1017.0 1017.0 0.0
26/05:30am 18.5 17.3 16.1 86 1.4 NNW 17 20 9 11 1016.7 - 0.0
26/05:00am 18.2 16.9 15.8 86 1.4 NW 17 26 9 14 1016.4 - 0.0
26/04:30am 18.1 16.4 16.3 89 1.1 NW 20 26 11 14 1016.2 - 0.0
26/04:00am 16.7 16.0 15.4 92 0.8 NNW 13 17 7 9 1016.2 - 0.0
26/03:30am 16.8 16.1 15.3 91 0.9 N 13 15 7 8 1016.6 - 0.0
26/03:00am 16.9 15.9 15.6 92 0.8 N 15 17 8 9 1016.6 1016.6 0.0
26/02:30am 16.8 16.4 15.3 91 0.9 NNW 11 13 6 7 1017.0 - 0.0
26/02:00am 17.1 16.6 15.8 92 0.8 NNW 13 15 7 8 1017.2 - 0.0
26/01:30am 16.3 17.2 14.1 87 1.2 NW 2 11 1 6 1017.6 - 0.0
26/01:00am 17.4 17.7 15.0 86 1.4 WNW 7 7 4 4 1017.7 - 0.0
26/12:30am 18.0 18.4 15.3 84 1.6 NNW 7 9 4 5 1017.8 - 0.0
26/12:00am 18.5 18.3 15.6 83 1.7 N 11 17 6 9 1017.8 1017.8 0.0
 
Date/Time
EST
Tmp

°C
App
Tmp
°C
Dew
Point
°C
Rel
Hum
%
Delta-T

°C
Wind Press
QNH
hPa
Press
MSL
hPa
Rain
since
9 am
mm
Dir
 
Spd
km/h
Gust
km/h
Spd
kts
Gust
kts
25/11:30pm 18.6 18.0 15.7 83 1.7 N 13 19 7 10 1017.7 - 0.0
25/11:00pm 18.6 17.6 15.5 82 1.8 N 15 19 8 10 1017.6 - 0.0
25/10:30pm 19.3 17.8 15.4 78 2.3 N 17 22 9 12 1017.6 - 0.0
25/10:00pm 19.8 17.8 15.0 74 2.8 NNW 19 30 10 16 1017.5 - 0.0
25/09:30pm 20.1 18.2 15.3 74 2.8 N 19 26 10 14 1017.4 - 0.0
25/09:00pm 20.6 18.9 15.8 74 2.9 NNW 19 26 10 14 1017.4 1017.4 0.0
25/08:30pm 21.1 19.5 16.5 75 2.8 N 20 32 11 17 1017.3 - 0.0
25/08:00pm 21.6 19.4 17.0 75 2.8 N 24 33 13 18 1017.1 - 0.0
25/07:30pm 21.2 20.5 17.4 79 2.3 N 17 22 9 12 1017.0 - 0.0
25/07:00pm 21.6 20.5 17.8 79 2.4 N 20 30 11 16 1016.5 - 0.0
25/06:30pm 21.8 20.1 18.0 79 2.4 N 24 30 13 16 1016.2 - 0.0
25/06:00pm 22.0 19.4 17.8 77 2.6 N 28 39 15 21 1015.7 1015.7 0.0
25/05:30pm 22.6 20.0 17.7 74 3.0 N 28 43 15 23 1015.3 - 0.0
25/05:00pm 22.6 19.4 17.3 72 3.3 N 30 39 16 21 1015.4 - 0.0
25/04:30pm 23.3 19.1 17.1 68 3.8 N 35 50 19 27 1015.2 - 0.0
25/04:00pm 24.0 19.4 17.0 65 4.3 N 37 50 20 27 1015.4 - 0.0
25/03:30pm 24.5 19.7 17.5 65 4.4 N 39 52 21 28 1015.6 - 0.0
25/03:00pm 24.8 20.8 17.5 64 4.5 NNE 35 48 19 26 1015.9 1015.9 0.0
25/02:30pm 24.8 19.8 17.0 62 4.8 N 39 46 21 25 1016.1 - 0.0
25/02:00pm 25.0 20.4 17.0 61 5.0 NNE 37 46 20 25 1016.6 - 0.0
25/01:30pm 25.7 21.4 17.9 62 4.9 NNE 37 46 20 25 1017.0 - 0.0
25/01:00pm 25.6 21.7 17.0 59 5.3 NNE 33 43 18 23 1017.4 - 0.0
25/12:30pm 25.7 21.6 17.4 60 5.2 NNE 35 43 19 23 1017.9 - 0.0
25/12:00pm 26.1 22.4 16.9 57 5.7 NNE 32 41 17 22 1018.4 1018.4 0.0
25/11:30am 25.9 22.6 17.0 58 5.5 NNE 30 37 16 20 1018.9 - 0.0
25/11:00am 25.4 22.1 16.0 56 5.7 NNE 28 37 15 20 1019.4 - 0.0
25/10:30am 25.1 21.8 16.0 57 5.5 NNE 28 35 15 19 1020.0 - 0.0
25/10:00am 25.7 22.6 16.5 56 5.7 NNE 28 37 15 20 1020.5 - 0.0
25/09:30am 25.5 23.9 14.9 52 6.4 N 17 22 9 12 1020.8 - 0.0
25/09:00am 24.3 22.1 14.4 54 5.8 N 19 26 10 14 1021.2 1021.2 0.0
25/08:30am 24.6 22.2 15.5 57 5.5 N 22 33 12 18 1021.5 - 0.0
25/08:00am 22.9 20.7 15.0 61 4.7 NW 20 26 11 14 1021.5 - 0.0
25/07:30am 21.7 20.1 15.1 66 3.9 NW 17 24 9 13 1021.6 - 0.0
25/07:00am 19.8 19.7 15.0 74 2.8 NNW 9 13 5 7 1021.3 - 0.0
25/06:30am 17.2 17.0 14.7 85 1.4 NW 9 15 5 8 1021.1 - 0.0
25/06:00am 15.3 14.1 14.0 92 0.7 NW 13 15 7 8 1020.6 1020.6 0.0
25/05:30am 14.0 12.5 13.1 94 0.5 WNW 13 17 7 9 1020.5 - 0.0
25/05:00am 13.2 11.8 12.1 93 0.6 WNW 11 13 6 7 1020.3 - 0.0
25/04:30am 13.3 12.7 12.2 93 0.6 W 7 9 4 5 1020.1 - 0.0
25/04:00am 13.6 13.0 12.3 92 0.7 W 7 9 4 5 1019.9 - 0.0
25/03:30am 13.7 13.1 12.4 92 0.7 W 7 9 4 5 1019.5 - 0.0
25/03:00am 14.1 13.0 13.0 93 0.6 WNW 11 13 6 7 1019.0 1019.0 0.0
25/02:30am 14.2 13.1 13.1 93 0.6 NW 11 13 6 7 1019.0 - 0.0
25/02:00am 14.0 13.1 12.7 92 0.7 WNW 9 11 5 6 1019.3 - 0.0
25/01:30am 14.0 13.7 12.7 92 0.7 W 6 7 3 4 1019.8 - 0.0
25/01:00am 13.9 13.0 12.6 92 0.7 W 9 11 5 6 1020.3 - 0.0
25/12:30am 14.0 12.7 12.6 91 0.8 WNW 11 11 6 6 1020.7 - 0.0
25/12:00am 14.1 13.6 12.5 90 0.9 NW 7 11 4 6 1021.1 1021.1 0.0
 
Date/Time
EST
Tmp

°C
App
Tmp
°C
Dew
Point
°C
Rel
Hum
%
Delta-T

°C
Wind Press
QNH
hPa
Press
MSL
hPa
Rain
since
9 am
mm
Dir
 
Spd
km/h
Gust
km/h
Spd
kts
Gust
kts
24/11:30pm 14.4 13.9 12.6 89 1.0 WNW 7 9 4 5 1021.7 - 0.0
24/11:00pm 14.7 14.4 12.7 88 1.1 WNW 6 7 3 4 1021.9 - 0.0
24/10:30pm 15.2 14.8 12.9 86 1.3 WNW 7 9 4 5 1022.2 - 0.0
24/10:00pm 16.0 15.0 13.5 85 1.4 W 11 11 6 6 1022.5 - 0.0
24/09:30pm 16.3 15.4 13.6 84 1.5 NNW 11 13 6 7 1022.3 - 0.0
24/09:00pm 16.5 15.4 13.2 81 1.8 NW 11 11 6 6 1022.4 1022.4 0.0
24/08:30pm 17.1 16.2 13.6 80 2.0 NW 11 13 6 7 1022.5 - 0.0
24/08:00pm 18.2 17.5 13.3 73 2.8 NW 9 11 5 6 1022.4 - 0.0
24/07:30pm 19.9 17.6 14.0 69 3.4 N 19 26 10 14 1022.2 - 0.0
24/07:00pm 20.0 17.5 14.1 69 3.4 N 20 28 11 15 1021.6 - 0.0
24/06:30pm 20.2 17.8 14.3 69 3.4 N 20 26 11 14 1021.3 - 0.0
24/06:00pm 20.7 17.6 14.4 67 3.7 NNE 24 28 13 15 1021.0 1021.0 0.0
24/05:30pm 21.2 18.3 14.1 64 4.1 NNE 22 28 12 15 1020.9 - 0.0
24/05:00pm 22.0 19.2 14.4 62 4.5 NNE 22 28 12 15 1020.6 - 0.0
24/04:30pm 22.8 20.0 14.4 59 4.9 NNE 22 26 12 14 1020.4 - 0.0
24/04:00pm 23.2 20.2 13.7 55 5.5 NE 22 28 12 15 1020.1 - 0.0
24/03:30pm 23.8 21.0 14.2 55 5.7 NE 22 28 12 15 1020.2 - 0.0
24/03:00pm 24.4 21.8 14.8 55 5.7 NE 22 28 12 15 1020.2 1020.2 0.0
24/02:30pm 24.3 21.5 14.4 54 5.9 NE 22 28 12 15 1020.4 - 0.0
24/02:00pm 25.0 22.3 14.5 52 6.2 NE 22 28 12 15 1020.4 - 0.0
24/01:30pm 25.3 22.5 14.4 50 6.5 NE 22 28 12 15 1020.6 - 0.0
24/01:00pm 25.7 23.5 16.0 55 5.9 NE 22 28 12 15 1021.1 - 0.0
24/12:30pm 24.9 22.1 14.4 52 6.2 NE 22 28 12 15 1021.3 - 0.0
24/12:00pm 25.5 23.2 14.6 51 6.5 NE 20 26 11 14 1021.7 1021.7 0.0
24/11:30am 25.1 22.9 14.8 52 6.2 NE 20 26 11 14 1021.8 - 0.0
24/11:00am 25.4 23.5 14.2 50 6.6 NE 17 22 9 12 1022.2 - 0.0
24/10:30am 24.9 23.3 15.0 54 5.9 NE 17 20 9 11 1022.5 - 0.0
24/10:00am 24.9 23.7 15.0 54 5.9 NE 15 20 8 11 1022.8 - 0.0
24/09:30am 25.4 24.2 15.1 53 6.2 NE 15 19 8 10 1023.1 - 0.0
24/09:00am 24.3 23.5 14.1 53 6.0 ENE 11 19 6 10 1023.2 1023.2 0.0
24/08:30am 22.7 23.3 14.3 59 4.9 NNW 4 11 2 6 1023.2 - 0.0
24/08:00am 22.1 22.6 15.5 66 3.9 W 7 11 4 6 1023.1 - 0.0
24/07:30am 20.5 21.1 15.7 74 2.9 W 7 11 4 6 1022.7 - 0.0
24/07:00am 17.4 17.4 15.2 87 1.3 W 9 11 5 6 1022.4 - 0.0
24/06:30am 15.4 15.6 14.6 95 0.5 W 7 9 4 5 1022.3 - 0.0
24/06:00am 13.8 13.4 12.9 94 0.5 W 7 7 4 4 1022.2 1022.2 0.0
24/05:30am 13.2 12.5 12.1 93 0.6 W 7 7 4 4 1021.9 - 0.0
24/05:00am 13.4 12.9 12.5 94 0.5 WSW 7 9 4 5 1021.7 - 0.0
24/04:30am 13.3 12.3 12.4 94 0.5 WSW 9 9 5 5 1021.3 - 0.0
24/04:00am 12.7 12.1 11.6 93 0.6 SW 6 7 3 4 1020.8 - 0.0
24/03:30am 12.9 12.3 11.8 93 0.6 WSW 6 7 3 4 1020.6 - 0.0
24/03:00am 13.3 12.6 12.0 92 0.7 WNW 7 11 4 6 1020.8 1020.8 0.0
24/02:30am 13.5 12.5 12.2 92 0.7 W 9 11 5 6 1020.7 - 0.0
24/02:00am 13.7 13.7 12.4 92 0.7 WNW 4 9 2 5 1020.8 - 0.0
24/01:30am 14.0 13.1 12.7 92 0.7 WNW 9 11 5 6 1020.8 - 0.0
24/01:00am 14.1 13.6 12.7 91 0.8 W 7 9 4 5 1021.1 - 0.0
24/12:30am 14.4 13.9 12.8 90 0.9 W 7 7 4 4 1021.4 - 0.0
24/12:00am 14.7 14.0 13.2 91 0.8 W 9 13 5 7 1021.8 1021.8 0.0
 
Date/Time
EST
Tmp

°C
App
Tmp
°C
Dew
Point
°C
Rel
Hum
%
Delta-T

°C
Wind Press
QNH
hPa
Press
MSL
hPa
Rain
since
9 am
mm
Dir
 
Spd
km/h
Gust
km/h
Spd
kts
Gust
kts
23/11:30pm 14.7 14.9 12.9 89 1.0 WSW 4 6 2 3 1021.7 - 0.0
23/11:00pm 15.0 14.8 13.0 88 1.1 WSW 6 7 3 4 1021.8 - 0.0
23/10:30pm 15.5 15.7 13.0 85 1.4 SW 4 7 2 4 1021.9 - 0.0
23/10:00pm 15.9 15.8 13.2 84 1.5 SW 6 9 3 5 1022.0 - 0.0
23/09:30pm 16.6 16.2 12.9 79 2.1 W 7 11 4 6 1021.6 - 0.0
23/09:00pm 19.3 17.2 13.5 69 3.3 NNE 17 22 9 12 1021.4 1021.4 0.0
23/08:30pm 19.2 17.2 13.8 71 3.1 NNE 17 20 9 11 1021.2 - 0.0
23/08:00pm 19.5 17.6 14.1 71 3.1 NNE 17 24 9 13 1020.8 - 0.0
23/07:30pm 19.6 17.3 14.0 70 3.2 NNE 19 22 10 12 1020.5 - 0.0
23/07:00pm 19.2 17.0 13.4 69 3.3 NNE 17 22 9 12 1020.3 - 0.0
23/06:30pm 19.5 17.8 13.7 69 3.3 NNE 15 20 8 11 1020.0 - 0.0
23/06:00pm 20.0 17.2 13.2 65 3.9 NNE 20 24 11 13 1019.4 1019.4 0.0
23/05:30pm 20.7 17.9 13.2 62 4.3 NNE 20 26 11 14 1019.0 - 0.0
23/05:00pm 21.5 18.9 13.2 59 4.8 NNE 19 26 10 14 1018.8 - 0.0
23/04:30pm 22.3 19.5 13.1 56 5.3 NNE 20 24 11 13 1018.6 - 0.0
23/04:00pm 22.8 20.1 13.6 56 5.3 NNE 20 26 11 14 1018.4 - 0.0
23/03:30pm 23.7 21.3 13.8 53 5.8 NE 19 24 10 13 1018.2 - 0.0

Latest Capital City Observations: Canberra | Sydney | Melbourne | Brisbane | Adelaide | Perth | Hobart | Darwin

Other Formats:

Comma delimited format used in spreadsheet applications
http://www.bom.gov.au/fwo/IDQ60901/IDQ60901.94569.axf

JavaScript Object Notation format (JSON) in row-major order
http://www.bom.gov.au/fwo/IDQ60901/IDQ60901.94569.json